Location: Liberec
(50.7830°N, 15.0500°E)
Time: 09:21:08
(UTC+02:00)

ISS - Visible Passes

Search period start: 20 October 2021 00:00
Search period end: 30 October 2021 00:00
Orbit: 417 x 423 km, 51.6° (Epoch: 20 October)

Date Brightness Start Highest point End Pass type
(mag) Time Alt. Az. Time Alt. Az. Time Alt. Az.
23 Oct -1.2 06:16:23 10° S 06:18:51 19° SE 06:21:20 10° E visible
24 Oct -0.9 05:30:16 10° SSE 05:31:57 13° SE 05:33:37 10° ESE visible
25 Oct -2.5 06:18:17 12° SW 06:21:12 38° SSE 06:24:22 10° E visible
26 Oct -2.1 05:33:31 25° S 05:34:14 27° SSE 05:37:11 10° E visible
27 Oct -0.9 04:48:39 16° ESE 04:48:39 16° ESE 04:49:53 10° E visible
27 Oct -3.6 06:21:39 21° WSW 06:23:48 70° SSE 06:27:10 10° ENE visible
28 Oct -3.3 05:36:44 53° SSE 05:36:49 53° SSE 05:40:08 10° E visible
28 Oct -3.7 07:10:15 10° W 07:13:38 76° N 07:17:01 10° E visible
29 Oct -1.1 04:51:47 20° E 04:51:47 20° E 04:53:05 10° E visible
29 Oct -3.8 06:24:47 25° W 06:26:37 82° N 06:30:00 10° E visible
